ARIANE 5 DEB (SYLDA), 27717

Orbit data source: Space-Track

ARIANE 5 DEB (SYLDA), 27717 is space debris in HEO originally from a launch on Wed, 09 Apr 2003 UTC launched from the French Guiana (FRGUI). Debris objects in space refer to the collection of defunct objects orbiting the Earth. Examples of debris include non-operational satellites, rocket bodies, and fragments generated from explosions, collisions, or faulty payload assembly.

Loading next visibility...
Identifier
27717, 2003-013D
Orbit
HEO
Country
Flag of FRFR
Related business
Manufacturer
Astrium
Mission
Spacecraft
Bus & Motor
SYLDA 5, Unknown motor
Mass
440 kg wet, 440 kg dry
Launch date (UTC)
2003-04-09 (23 years ago)
Launch vehicle
Unknown
Launch site
French Guiana (FRGUI)
Object type
Payload
Rocket body
Debris
Shape & HBR
Cyl, 2.5 m
Radar Cross Section
25.270 m², Large (>1 m²)

Expand to show TLE details & history
Last TLE update: 11 hours ago

TLE from 11 hours ago
0 ARIANE 5 DEB (SYLDA)
1 27717U 03013D   25340.93002833 -.00000117  00000-0 -24248-2 0  9996
2 27717   1.9142 314.6727 7070101 220.6565 329.5975  2.22487125184247
Epoch: 2025-12-06T22:19Z
TLE epoch observation values (Epoch: 2025-12-06T22:19:14.447Z)
Latitude
1.9007°
Longitude
7.86369°
Altitude
11,842.727 km
Speed
5.26 km/s
True Right ascension
03h 54m 29s
True Declination
1° 53' 46"
Sunlit
Object was in daylight at epoch
Visualization orbit readout
Latitude
Unknown
Longitude
Unknown
Altitude
Unknown
Speed
Unknown
Apparent Right ascension
Unknown
Apparent Declination
Unknown
Sunlit
N/A
Visualization observer readout
Local Sidereal Time
07:36:43
Azimuth
Unknown
Elevation
Unknown
Doppler factor
Unknown
Orbital elements
Apogee altitude
35,939.638 km
Perigee altitude
885.253 km
Semi-major axis
24,790.583 km
Eccentricity
0.70701
Inclination
1.9142°
RAAN
314.6727°
Arg. of periapsis
220.6565°
True anomaly
243.1682°
Mean anomaly
329.5975°
Eccentric anomaly
292.05238°
Mean motion
0.55605 °/min
Orbital period
647.42 mins
BSTAR
-0.0024248
Loading maneuver chart data...
Computing Atmospheric mass density...
Loading historical data...
Loading historical data...
Loading historical data...
Loading historical data...
Loading historical data...
Loading historical data...
Loading historical data...
Other satellites on launch #13 in the year 2003 (2003-04-09 UTC)

Documentation

Showing up to 5 results
|